Home   Weather   Swanage   Past weeks

Flag for United Kingdom Past Weather in Swanage, England, United Kingdom — Yesterday and Last 2 Weeks

Now
61 °F

Scattered clouds.


Feels Like: 61 °F
Forecast: 43 / 63 °F
Wind: 14 mph from West

Location: Bournemouth Airport

Current Time: Oct 1, 2016 at 1:13:48 PM

Latest Report: Oct 1, 2016 at 12:20 PM


Visibility: N/A

Pressure: 29.68 "Hg

Humidity: 63%

Dew Point: 48 °F

Location of SwanageLocation

Past Weather in Swanage — Graph

°F

Swanage Temperature Yesterday

Maximum temperature yesterday: 66 °F (at 1:20 PM)
Minimum temperature yesterday: 45 °F (at 11:50 PM)
Average temperature yesterday: 56 °F

High & Low Weather Summary for the Past Weeks

 TemperatureHumidityPressure
High70 °F (Sep 22, 2:20 PM)100% (Sep 19, 7:20 AM)30.30 "Hg (Sep 19, 7:20 AM)
Low41 °F (Sep 23, 5:50 AM)52% (Sep 16, 3:50 PM)29.65 "Hg (Oct 1, 9:20 AM)
Average60 °F81%30.08 "Hg
* Reported Sep 16 11:20 AM — Oct 1 11:50 AM, Swanage, Weather by CustomWeather, © 2016

Note: Actual official high and low records may vary slightly from our data, if they occured in-between our weather recording intervals... More about our weather records

Advertising

Swanage Weather History for the Previous 24 Hours

Scroll right to see more
 ConditionsComfort  
Time TempWeatherWind HumidityBarometerVisibility
11:50 AM
Sat, Oct 1
59 °FScattered clouds.10 mph77%29.65 "HgN/A
11:20 AM55 °FScattered clouds.7 mph82%29.68 "HgN/A
10:50 AM55 °FScattered clouds.3 mph82%29.68 "HgN/A
10:20 AM54 °FScattered clouds.5 mph88%29.68 "HgN/A
9:50 AM54 °FPartly sunny.18 mph88%29.68 "HgN/A
9:20 AM54 °FSprinkles. Broken clouds.3 mph94%29.65 "HgN/A
8:50 AM52 °FSprinkles. Broken clouds.2 mph94%29.68 "HgN/A
8:20 AM52 °FRain showers. Broken clouds.2 mph94%29.68 "Hg5 mi
7:50 AM50 °FRain showers. Broken clouds.3 mph100%29.68 "HgN/A
7:20 AM50 °FThundershowers. Broken clouds.3 mph100%29.68 "HgN/A
6:50 AM50 °FPassing clouds.3 mph94%29.68 "HgN/A
6:20 AM46 °FPassing clouds.2 mph100%29.68 "HgN/A
5:50 AM46 °FLight rain. Overcast.3 mph93%29.71 "HgN/A
12:20 AM45 °FClear.1 mph100%29.80 "Hg10 mi
11:50 PM
Fri, Sep 30
45 °FClear.1 mph100%29.80 "Hg10 mi
11:20 PM46 °FFog.2 mph93%29.83 "HgN/A
10:50 PM46 °FClear.1 mph100%29.83 "Hg10 mi
10:20 PM48 °FClear.1 mph94%29.83 "Hg10 mi
9:50 PM48 °FClear.1 mph94%29.83 "Hg10 mi
9:20 PM50 °FClear.1 mph88%29.86 "Hg10 mi
8:50 PM52 °FClear.1 mph88%29.86 "Hg10 mi
8:20 PM55 °FClear.3 mph82%29.86 "Hg10 mi
7:50 PM55 °FPassing clouds.6 mph88%29.86 "HgN/A
7:20 PM55 °FPassing clouds.6 mph88%29.86 "HgN/A
6:50 PM57 °FPassing clouds.6 mph82%29.86 "HgN/A
6:20 PM59 °FPassing clouds.10 mph72%29.86 "HgN/A
5:50 PM59 °FScattered clouds.10 mph72%29.86 "HgN/A
5:20 PM63 °FScattered clouds.12 mph64%29.86 "HgN/A
4:50 PM63 °FScattered clouds.12 mph64%29.86 "HgN/A
4:20 PM63 °FScattered clouds.13 mph64%29.86 "HgN/A
3:50 PM63 °FScattered clouds.12 mph64%29.86 "HgN/A
3:20 PM64 °FScattered clouds.12 mph60%29.86 "HgN/A
2:50 PM63 °FScattered clouds.14 mph64%29.89 "HgN/A
2:20 PM63 °FScattered clouds.12 mph64%29.89 "HgN/A
1:50 PM63 °FScattered clouds.13 mph64%29.89 "HgN/A
1:20 PM66 °FScattered clouds.16 mph60%29.89 "HgN/A
Weather by CustomWeather, © 2016

See weather overviewHow to use our weather pages